Chippewa, MI

2:38 AM EDT on October 23, 2019 (GMT -0400)
Chippewa County International

Weather History for KCIU - August, 2019

Change the Weather History Date:

Thursday, August 29, 2019

  Actual Average Record
Temperature  
Mean Temperature 60 °F -  
Max Temperature 71 °F 73 °F 89 °F (1991)
Min Temperature 51 °F 51 °F 28 °F (1982)
Degree Days  
Heating Degree Days 5    
Growing Degree Days 10 (Base 50)    
Moisture  
Dew Point 54 °F    
Average Humidity 79    
Maximum Humidity 97    
Minimum Humidity 54    
Precipitation  
Precipitation 0.01 in - - ()
Sea Level Pressure  
Sea Level Pressure 29.75 in    
Wind  
Wind Speed 7 mph ()    
Max Wind Speed 15 mph    
Max Gust Speed 23 mph    
Visibility 10.0 miles    
Events Rain , Thunderstorm    
Averages and records for this station are not official NWS values.
T = Trace of Precipitation, MM = Missing Value Source: Averaged Metar Reports

Daily Weather History Graph

Daily Weather History Graph

Search for Another Location

Airport or City:

Astronomy

Aug. 29, 2019 Rise Set
Actual Time 6:54 AM EDT 8:22 PM EDT
Civil Twilight 6:22 AM EDT 8:53 PM EDT
Nautical Twilight 5:44 AM EDT 9:31 PM EDT
Astronomical Twilight 5:03 AM EDT 10:12 PM EDT
Moon 5:30 AM EDT (8/29) 8:23 PM EDT (8/29)
Length of Visible Light 14h 30m
Length of Day
13h 28m
Waning Crescent, 1% of the Moon is Illuminated
Aug 29
Waning Crescent
Aug 30
New
Sep 5
First Quarter
Sep 14
Full
Sep 21
Last Quarter

Hourly Weather History & Observations

Time (EDT) Temp. Dew Point Humidity Pressure Visibility Wind Dir Wind Speed Gust Speed Precip Events Conditions
12:56 AM 55.9 °F 52.0 °F 87% 29.83 in 10.0 mi West 5.8 mph - N/A   Overcast
1:56 AM 55.9 °F 52.0 °F 87% 29.83 in 10.0 mi WSW 5.8 mph - N/A   Overcast
2:56 AM 54.0 °F 51.1 °F 90% 29.82 in 10.0 mi WSW 4.6 mph - N/A   Overcast
3:56 AM 52.0 °F 50.0 °F 93% 29.82 in 10.0 mi SSW 3.5 mph - N/A   Clear
4:56 AM 51.1 °F 48.9 °F 92% 29.82 in 10.0 mi South 4.6 mph - N/A   Partly Cloudy
5:56 AM 51.1 °F 48.9 °F 92% 29.83 in 10.0 mi South 4.6 mph - N/A   Clear
6:56 AM 52.0 °F 50.0 °F 93% 29.83 in 10.0 mi South 5.8 mph - N/A   Clear
7:56 AM 54.0 °F 53.1 °F 97% 29.83 in 10.0 mi South 5.8 mph - 0.01 in   Clear
8:56 AM 60.1 °F 55.9 °F 86% 29.82 in 10.0 mi South 3.5 mph - N/A   Clear
9:56 AM 64.9 °F 55.9 °F 73% 29.80 in 10.0 mi SSW 9.2 mph 16.1 mph N/A   Clear
10:56 AM 66.9 °F 55.0 °F 66% 29.79 in 10.0 mi WSW 12.7 mph 19.6 mph N/A   Scattered Clouds
11:09 AM 66.2 °F 53.6 °F 64% 29.78 in 10.0 mi WSW 9.2 mph 20.7 mph N/A   Mostly Cloudy
11:18 AM 66.2 °F 53.6 °F 64% 29.78 in 10.0 mi SW 10.4 mph 19.6 mph N/A   Mostly Cloudy
11:56 AM 66.9 °F 54.0 °F 63% - 10.0 mi North - - N/A   Scattered Clouds
12:56 PM 69.1 °F 52.0 °F 54% 29.77 in 10.0 mi WSW 12.7 mph 23.0 mph N/A   Mostly Cloudy
1:56 PM 66.9 °F 53.1 °F 61% 29.76 in 10.0 mi WSW 12.7 mph 18.4 mph 0.00 in Rain Light Rain
2:56 PM 64.0 °F 55.0 °F 73% 29.71 in 10.0 mi SSW 8.1 mph 20.7 mph 0.00 in Rain Light Rain
3:56 PM 66.0 °F 55.9 °F 70% 29.67 in 10.0 mi SSW 8.1 mph - 0.00 in   Overcast
4:56 PM 66.9 °F 55.9 °F 68% 29.65 in 10.0 mi South 10.4 mph 19.6 mph 0.00 in   Overcast
5:56 PM 66.0 °F 57.9 °F 75% 29.65 in 10.0 mi SW 10.4 mph 17.3 mph 0.00 in Rain Light Rain
6:54 PM 66.2 °F 60.8 °F 83% 29.66 in 10.0 mi West 12.7 mph 18.4 mph 0.00 in   Mostly Cloudy
6:56 PM 66.0 °F 60.1 °F 81% 29.66 in 10.0 mi West 12.7 mph 18.4 mph 0.00 in   Mostly Cloudy
7:11 PM 64.4 °F 60.8 °F 88% 29.67 in 10.0 mi West 10.4 mph - N/A   Mostly Cloudy
7:21 PM 64.4 °F 59.0 °F 83% 29.67 in 10.0 mi WNW 10.4 mph - N/A   Mostly Cloudy
7:45 PM 64.4 °F 57.2 °F 77% 29.69 in 10.0 mi West 13.8 mph 23.0 mph 0.00 in Rain , Thunderstorm Light Rain
7:56 PM 64.0 °F 57.9 °F 80% 29.69 in 10.0 mi West 15.0 mph 21.9 mph 0.00 in Rain Light Rain
8:56 PM 61.0 °F 53.1 °F 75% 29.73 in 10.0 mi WNW 9.2 mph - 0.00 in   Overcast
9:56 PM 59.0 °F 52.0 °F 78% 29.75 in 10.0 mi West 9.2 mph - N/A   Overcast
10:56 PM 57.0 °F 52.0 °F 83% 29.77 in 10.0 mi West 9.2 mph - N/A   Mostly Cloudy
11:56 PM 55.0 °F 52.0 °F 89% 29.79 in 10.0 mi West 5.8 mph - N/A   Clear